Location: Finnegan
(51.1333°N, 112.0833°W)
Time: 06:55:44
(UTC+00:00)

N. Korean satellite - Pass Details

Date: 07 December 2021
Orbit: 446 x 491 km, 97.3° (Epoch: 18 January)

Event Time Altitude Azimuth Distance (km) Brightness Sun altitude
Rises 12:41:57 0° 15° (NNE) 2,468 10.3 -23.3°
Reaches altitude 10° 12:44:01 10° 19° (NNE) 1,588 9.3 -23.0°
Maximum altitude 12:47:23 62° 101° (E) 509 6.8 -22.5°
Drops below altitude 10° 12:50:43 10° 183° (S) 1,573 9.2 -21.9°
Sets 12:52:45 0° 187° (S) 2,441 10.2 -21.6°
